Regional Weather Roundup
Issued by NWS

Home | Current Version | Previous Version | Text Only | Print | Product List | Glossary Off
Versions: 1 2 3 4 5 6 7 8 9 10 11 12 13 14 15 16 17 18 19 20 21 22 23 24 25 26 27 28 29 30 31 32 33 34 35 36 37 38 39 40 41 42 43 44 45 46 47 48 49

000
ASUS45 KTFX 070010
RWRMT
MONTANA REGIONAL WEATHER ROUNDUP
NATIONAL WEATHER SERVICE GREAT FALLS MT
500 PM MST SAT FEB 06 2016

NOTE: "FAIR" INDICATES FEW OR NO CLOUDS BELOW 12000 FEET WITH NO
SIGNIFICANT WEATHER AND/OR OBSTRUCTIONS TO VISIBILITY.

MTZ001>007-043-070100-
WEST OF THE DIVIDE

CITY           SKY/WX    TMP DP  RH WIND       PRES   REMARKS
KALISPELL      PTCLDY    38  16  40 W12G24    30.23R WCI  30
MISSOULA       CLOUDY    38  25  59 NW13G18   30.31R WCI  30
BUTTE          LGT RAIN  35  11  36 W16G32    30.14R WCI  25
MULLAN PASS    CLOUDY    23  21  92 VRB6      30.24R WCI  16
ANACONDA         N/A     36   9  32 SW18G26   30.15R WCI  25
DEER LODGE       N/A     30  21  69 NW12      30.20R WCI  21
HAMILTON         N/A     43  16  33 S12G17    30.30R
LIBBY            N/A     43  16  33 NW7       30.29R
$$

MTZ008-052>055-070100-
SOUTHWEST MONTANA

CITY           SKY/WX    TMP DP  RH WIND       PRES   REMARKS
BOZEMAN        CLOUDY    35  20  54 NW17      30.14R WCI  25
DILLON         CLOUDY    39  22  50 W20G29    30.19R WCI  29
ENNIS          PTCLDY    37  19  48 S12       30.24R WCI  30
TWIN BRIDGES     N/A     40  17  39 E8        30.14S
$$

MTZ009-010-012-014-046-048-049-054-070100-
EAST SLOPES AND CENTRAL MONTANA

CITY           SKY/WX    TMP DP  RH WIND       PRES   REMARKS
CUT BANK       PTCLDY    33  20  58 W21       30.05R WCI  21
GREAT FALLS    CLOUDY    37  16  42 W20       30.07R WCI  27
MALMSTROM AFB  CLOUDY    39  15  36 W21G32    30.08R WCI  29
HELENA         PTCLDY    38  20  48 W26G37    30.15R WCI  26
CHOTEAU          N/A     36  18  48 NW12G20   30.10R WCI  27
CONRAD           N/A     38  15  39 SW30      30.06R WCI  26
$$

MTZ011-013-016-021-045-047-050-051-070100-
NORTH CENTRAL MONTANA

CITY           SKY/WX    TMP DP  RH WIND       PRES   REMARKS
HAVRE          CLOUDY    38  30  73 S8        29.99S
LEWISTOWN      MOCLDY    36  20  52 NW17      30.04R WCI  26
N BAR RANCH      N/A     36  14  41 NW30G41   30.04R WCI  22
CHINOOK          N/A     37  32  81 S9        29.98F WCI  31
$$

MTZ017>020-022>027-061-062-070100-
NORTHEAST MONTANA

CITY           SKY/WX    TMP DP  RH WIND       PRES   REMARKS
GLASGOW        PTCLDY    38  28  67 W29G39    29.86R WCI  26
JORDAN           N/A     38  28  67 NW29G37   29.97R WCI  26
SIDNEY         PTCLDY    43  27  52 W31G40    29.75R
WOLF POINT     CLEAR     40  29  64 W25G31    29.82R
PLENTYWOOD       N/A     37  30  75 W18G26    29.69R WCI  27
POPLAR           N/A     37  30  75 W23G30    29.78R WCI  26
$$

MTZ028>42-056>058-070100-
SOUTHCENTRAL AND SOUTHEAST MONTANA

CITY           SKY/WX    TMP DP  RH WIND       PRES   REMARKS
BAKER          CLOUDY    43  18  36 NW26G43   29.86R
BILLINGS       CLOUDY    42  12  29 NW29G36   30.04R
LIVINGSTON     CLOUDY    39  16  39 W20G28    30.11R WCI  29
MILES CITY     CLEAR     44  22  41 NW38G52   29.93R
FORSYTH          N/A     45  18  33 W21G30    29.99R
LAUREL           N/A     42  12  29 W16       30.04R
ROUNDUP          N/A     42   9  26 W22       29.94R
$$

REGIONAL REPORTS...DAKOTAS

CITY           SKY/WX    TMP DP  RH WIND       PRES   REMARKS
WILLISTON      CLOUDY    41  31  67 NW31G39   29.69R
MINOT          MOCLDY    48  26  42 W23G33    29.56S
DICKINSON      MOCLDY    43  18  36 W37G53    29.72R
BEACH            N/A     39  23  52 W37G49    29.83R WCI  26
CROSBY         CLOUDY    37  37 100 NW32G46   29.63R WCI  25
TIOGA          CLOUDY    37  36  93 W29G39    29.67R WCI  25
WATFORD CITY     N/A     41  28  60 NW25G40   29.69R
BISMARCK       PTCLDY    50  24  36 W12       29.70R
GRAND FORKS    CLOUDY    40  31  70 SW13      29.57F
FARGO          CLOUDY    39  31  72 SW16      29.67R WCI  30
BUFFALO SD       N/A     42  20  41 W28G35    29.80F
RAPID CITY     CLOUDY    42  29  59 N29G46    29.91R
$$

REGIONAL REPORTS...WYOMING/IDAHO/WASHINGTON

CITY           SKY/WX    TMP DP  RH WIND       PRES   REMARKS
GILLETTE       CLOUDY    38  23  55 NW12      30.00R WCI  30
SHERIDAN       CLOUDY    39  23  52 MISG      29.98R
BUFFALO WY     CLOUDY    36  24  62 N16G23    30.01R WCI  26
CODY           CLOUDY    41  12  30 SW21G33   30.07S
YELLOWSTONE LA   N/A     22  15  75 VRB6G17   30.24R WCI  14
IDAHO FALLS    CLOUDY    30  22  72 SW21      30.34F WCI  17
SALMON         CLOUDY    30  19  64 CALM      30.30R
BOISE          MOCLDY    43  32  65 NW7       30.42S
SPOKANE        CLOUDY    38  31  76 SW8       30.37R
$$

REGIONAL REPORTS...ALBERTA

CITY           SKY/WX    TMP DP  RH WIND       PRES   REMARKS
EDMONTON       PTCLDY    36  21  55 W17G28    29.84R WCI  25
CALGARY        PTCLDY    37   3  23 W20G33    29.96R WCI  27
LETHBRIDGE     PTCLDY    39  16  38 W32G46    30.01R WCI  27
MEDICINE HAT   MOCLDY    41  21  45 W18G28    29.91R
MILK RIVER       N/A     37  14  38 W24G35      N/A  WCI  26
$$

REGIONAL REPORTS...SASKATCHEWAN

CITY           SKY/WX    TMP DP  RH WIND       PRES   REMARKS
SWIFT CURRENT  PTCLDY    36  23  60 NW26G32   29.76R WCI  23
REGINA         MOCLDY    36  28  75 NW25G38   29.58R WCI  23
SASKATOON      PTCLDY    37  25  60 NW23G32   29.58R WCI  26
CYPRESS HILLS    N/A     32  21  64 NW9         N/A  WCI  24
VAL MARIE        N/A     36  28  75 W24G31      N/A  WCI  24
ROCKGLEN         N/A     37  21  52 NW26G43     N/A  WCI  26
$$



USA.gov is the U.S. government's official web portal to all federal, state and local government web resources and services.